• en France
  • Liste des pays
  • À 7 jours
  • Température de l'eau
  • Carte satellitaire
  • Carte météo
  • Widgets météo
  • user-avatar
    Se connecter

    Météo par heure à Szentendre

    Ce jour, 18 Juillet, Mercredi

    Heure Température Précipitation Vent Pression Humidité
    00:00 +20°C° 0 mm 5 m/s 743 mmHg 77%
    01:00 +20°C° 0 mm 5 m/s 742 mmHg 77%
    02:00 +20°C° 0,2 mm 5 m/s 742 mmHg 78%
    03:00 +19°C° 0,2 mm 6 m/s 742 mmHg 80%
    04:00 +19°C° 0,2 mm 6 m/s 742 mmHg 81%
    05:00 +20°C° 0,5 mm 6 m/s 742 mmHg 79%
    06:00 +20°C° 0,5 mm 7 m/s 742 mmHg 78%
    07:00 +21°C° 0,5 mm 7 m/s 742 mmHg 76%
    08:00 +22°C° 0,4 mm 8 m/s 743 mmHg 74%
    09:00 +22°C° 0,4 mm 8 m/s 743 mmHg 71%
    10:00 +23°C° 0,4 mm 8 m/s 743 mmHg 68%
    11:00 +23°C° 0,1 mm 8 m/s 743 mmHg 67%
    12:00 +23°C° 0,1 mm 9 m/s 743 mmHg 65%
    13:00 +23°C° 0,1 mm 9 m/s 743 mmHg 64%
    14:00 +23°C° 0,1 mm 9 m/s 743 mmHg 66%
    15:00 +22°C° 0,1 mm 10 m/s 743 mmHg 68%
    16:00 +22°C° 0,1 mm 10 m/s 743 mmHg 70%
    17:00 +21°C° 0,1 mm 9 m/s 743 mmHg 73%
    18:00 +21°C° 0,1 mm 9 m/s 743 mmHg 75%
    19:00 +21°C° 0,1 mm 8 m/s 743 mmHg 78%
    20:00 +20°C° 0,3 mm 7 m/s 743 mmHg 80%
    21:00 +20°C° 0,3 mm 7 m/s 743 mmHg 82%
    22:00 +20°C° 0,3 mm 6 m/s 743 mmHg 84%
    23:00 +20°C° 0,3 mm 6 m/s 743 mmHg 86%

    Demain, 19 Juillet, Jeudi

    Heure Température Précipitation Vent Pression Humidité
    00:00 +19°C° 0,3 mm 5 m/s 744 mmHg 87%
    01:00 +19°C° 0,3 mm 5 m/s 744 mmHg 89%
    02:00 +19°C° 0,2 mm 5 m/s 744 mmHg 89%
    03:00 +19°C° 0,2 mm 5 m/s 744 mmHg 89%
    04:00 +19°C° 0,2 mm 5 m/s 744 mmHg 89%
    05:00 +19°C° 0,1 mm 5 m/s 744 mmHg 88%
    06:00 +20°C° 0,1 mm 5 m/s 744 mmHg 86%
    07:00 +20°C° 0,1 mm 5 m/s 745 mmHg 84%
    08:00 +22°C° 0 mm 5 m/s 745 mmHg 79%
    09:00 +23°C° 0 mm 5 m/s 745 mmHg 74%
    10:00 +25°C° 0 mm 5 m/s 745 mmHg 69%
    11:00 +26°C° 0 mm 6 m/s 745 mmHg 64%
    12:00 +28°C° 0 mm 6 m/s 745 mmHg 59%
    13:00 +29°C° 0 mm 6 m/s 745 mmHg 54%
    14:00 +29°C° 0 mm 6 m/s 745 mmHg 54%
    15:00 +29°C° 0 mm 6 m/s 745 mmHg 54%
    16:00 +28°C° 0 mm 6 m/s 745 mmHg 54%
    17:00 +27°C° 0 mm 6 m/s 745 mmHg 59%
    18:00 +26°C° 0 mm 5 m/s 745 mmHg 63%
    19:00 +23°C° 0 mm 5 m/s 746 mmHg 68%
    20:00 +22°C° 0 mm 5 m/s 746 mmHg 70%
    21:00 +21°C° 0 mm 4 m/s 746 mmHg 73%
    22:00 +21°C° 0 mm 4 m/s 746 mmHg 76%
    23:00 +20°C° 0 mm 4 m/s 746 mmHg 78%

    Après-demain, 20 Juillet, Vendredi

    Heure Température Précipitation Vent Pression Humidité
    00:00 +20°C° 0 mm 3 m/s 746 mmHg 80%
    01:00 +19°C° 0 mm 3 m/s 746 mmHg 82%
    02:00 +19°C° 0 mm 3 m/s 746 mmHg 83%
    03:00 +19°C° 0 mm 3 m/s 746 mmHg 84%
    04:00 +19°C° 0 mm 3 m/s 746 mmHg 85%
    05:00 +20°C° 0 mm 3 m/s 746 mmHg 81%
    06:00 +21°C° 0 mm 3 m/s 746 mmHg 78%
    07:00 +22°C° 0 mm 3 m/s 747 mmHg 75%
    08:00 +24°C° 0 mm 3 m/s 747 mmHg 70%
    09:00 +26°C° 0 mm 3 m/s 747 mmHg 64%
    10:00 +27°C° 0 mm 3 m/s 747 mmHg 59%
    11:00 +28°C° 0,3 mm 3 m/s 747 mmHg 57%
    12:00 +29°C° 0,3 mm 3 m/s 746 mmHg 55%
    13:00 +29°C° 0,3 mm 3 m/s 746 mmHg 53%
    14:00 +29°C° 0,3 mm 3 m/s 746 mmHg 53%
    15:00 +30°C° 0,3 mm 3 m/s 746 mmHg 53%
    16:00 +30°C° 0,3 mm 3 m/s 745 mmHg 52%
    17:00 +28°C° 0 mm 3 m/s 745 mmHg 57%
    18:00 +27°C° 0 mm 3 m/s 745 mmHg 62%
    19:00 +26°C° 0 mm 2 m/s 745 mmHg 67%
    20:00 +25°C° 0 mm 2 m/s 745 mmHg 71%
    21:00 +24°C° 0 mm 2 m/s 745 mmHg 74%
    22:00 +22°C° 0 mm 1 m/s 746 mmHg 78%
    23:00 +22°C° 0 mm 1 m/s 746 mmHg 80%

    21 Juillet, Samedi

    Heure Température Précipitation Vent Pression Humidité
    00:00 +21°C° 0 mm 1 m/s 745 mmHg 82%
    01:00 +21°C° 0 mm 1 m/s 745 mmHg 84%
    02:00 +21°C° 0 mm 1 m/s 745 mmHg 85%
    03:00 +20°C° 0 mm 1 m/s 745 mmHg 86%
    04:00 +20°C° 0 mm 1 m/s 745 mmHg 87%
    05:00 +21°C° 0 mm 1 m/s 745 mmHg 82%
    06:00 +23°C° 0 mm 1 m/s 745 mmHg 76%
    07:00 +24°C° 0 mm 1 m/s 745 mmHg 71%
    08:00 +26°C° 0 mm 1 m/s 745 mmHg 64%
    09:00 +28°C° 0 mm 1 m/s 745 mmHg 57%
    10:00 +29°C° 0 mm 1 m/s 745 mmHg 51%
    11:00 +30°C° 0,1 mm 1 m/s 744 mmHg 48%
    12:00 +31°C° 0,1 mm 2 m/s 744 mmHg 44%
    13:00 +32°C° 0,1 mm 2 m/s 744 mmHg 41%
    14:00 +32°C° 0 mm 2 m/s 743 mmHg 42%
    15:00 +32°C° 0 mm 2 m/s 743 mmHg 42%
    16:00 +32°C° 0 mm 2 m/s 743 mmHg 43%
    17:00 +31°C° 0,2 mm 2 m/s 743 mmHg 47%
    18:00 +29°C° 0,2 mm 1 m/s 742 mmHg 51%
    19:00 +28°C° 0,2 mm 1 m/s 742 mmHg 55%
    20:00 +27°C° 0,6 mm 1 m/s 742 mmHg 60%
    21:00 +25°C° 0,6 mm 2 m/s 743 mmHg 65%
    22:00 +24°C° 0,6 mm 2 m/s 743 mmHg 71%
    23:00 +23°C° 0,5 mm 2 m/s 743 mmHg 75%

    22 Juillet, Dimanche

    Heure Température Précipitation Vent Pression Humidité
    00:00 +23°C° 0,5 mm 1 m/s 743 mmHg 78%
    01:00 +22°C° 0,5 mm 1 m/s 743 mmHg 82%
    02:00 +22°C° 0,7 mm 1 m/s 743 mmHg 84%
    03:00 +21°C° 0,7 mm 1 m/s 742 mmHg 87%
    04:00 +21°C° 0,7 mm 1 m/s 742 mmHg 89%
    05:00 +21°C° 0 mm 2 m/s 742 mmHg 86%
    06:00 +21°C° 0 mm 2 m/s 742 mmHg 84%
    07:00 +23°C° 0 mm 2 m/s 742 mmHg 81%
    08:00 +25°C° 0,1 mm 2 m/s 742 mmHg 75%
    09:00 +26°C° 0,1 mm 2 m/s 742 mmHg 69%
    10:00 +28°C° 0,1 mm 3 m/s 742 mmHg 63%
    11:00 +28°C° 1 mm 3 m/s 742 mmHg 61%
    12:00 +29°C° 1 mm 3 m/s 742 mmHg 60%
    13:00 +29°C° 1 mm 3 m/s 741 mmHg 58%
    14:00 +29°C° 1 mm 3 m/s 741 mmHg 58%
    15:00 +29°C° 1 mm 3 m/s 741 mmHg 58%
    16:00 +30°C° 1 mm 3 m/s 741 mmHg 58%
    17:00 +28°C° 0,8 mm 2 m/s 741 mmHg 63%
    18:00 +27°C° 0,8 mm 2 m/s 741 mmHg 69%
    19:00 +25°C° 0,8 mm 2 m/s 741 mmHg 74%
    20:00 +24°C° 1,1 mm 2 m/s 741 mmHg 78%
    21:00 +23°C° 1,1 mm 2 m/s 741 mmHg 82%
    22:00 +21°C° 1,1 mm 2 m/s 742 mmHg 85%
    23:00 +21°C° 0,5 mm 2 m/s 742 mmHg 86%

    23 Juillet, Lundi

    Heure Température Précipitation Vent Pression Humidité
    00:00 +21°C° 0,5 mm 2 m/s 742 mmHg 87%
    01:00 +20°C° 0,5 mm 2 m/s 742 mmHg 88%
    02:00 +20°C° 0,8 mm 3 m/s 742 mmHg 87%
    03:00 +20°C° 0,8 mm 3 m/s 742 mmHg 87%
    04:00 +20°C° 0,8 mm 3 m/s 742 mmHg 87%
    05:00 +20°C° 0,3 mm 3 m/s 743 mmHg 83%
    06:00 +21°C° 0,3 mm 3 m/s 743 mmHg 80%
    07:00 +22°C° 0,3 mm 4 m/s 744 mmHg 77%
    08:00 +25°C° 0 mm 4 m/s 744 mmHg 70%
    09:00 +26°C° 0 mm 4 m/s 744 mmHg 62%
    10:00 +28°C° 0 mm 5 m/s 744 mmHg 55%
    11:00 +29°C° 0,1 mm 4 m/s 744 mmHg 51%
    12:00 +30°C° 0,1 mm 4 m/s 744 mmHg 48%
    13:00 +32°C° 0,1 mm 4 m/s 744 mmHg 45%
    14:00 +30°C° 0 mm 4 m/s 744 mmHg 47%
    15:00 +30°C° 0 mm 4 m/s 744 mmHg 49%
    16:00 +30°C° 0 mm 4 m/s 744 mmHg 51%
    17:00 +29°C° 0 mm 3 m/s 744 mmHg 54%
    18:00 +27°C° 0 mm 3 m/s 744 mmHg 57%
    19:00 +26°C° 0 mm 3 m/s 744 mmHg 60%
    20:00 +25°C° 0 mm 3 m/s 745 mmHg 61%
    21:00 +24°C° 0 mm 3 m/s 745 mmHg 62%
    22:00 +22°C° 0 mm 3 m/s 745 mmHg 63%
    23:00 +21°C° 0 mm 3 m/s 745 mmHg 66%
    Voir plus